Content
SEND FEEDBACK

Daily
Averages
Monthly
Summary
United States of America

GIDEON, MISSOURI


Home > North America > United States > Missouri
Elevation: 268 feet     Latitude: 36 27N     Longitude: 089 54W

WEATHER
 
SELECT A DAY
Number of Records: 212,616;   Date Range: 1/1/95 - 12/17/14
 
SHARE

PRINT THIS DATA

[ ← Previous Day ]
WEATHER ALMANAC - FEBRUARY 13, 2013
[ Next Day → ]
[ °C ]   °F
Weather ElementAverageHighLow
Temperature42.8 °F51.1 °F (4:53 pm)39 °F (2:53 am)
Dewpoint36.6 °F39 °F (1:53 pm)35.1 °F (10:53 am)
Humidity79.3 %93 % (7:36 am)54 % (4:53 pm)
Barometer29.92 in29.98 in (9:53 am)29.86 in (3:38 am)
Wind Speed7.9 mph18.4 mph (1:53 am)
Weather ElementAverage
Visibility9.4 mi
Wind DirectionW (268.3 °)

Weather ElementTotal
Precipitation0.34 in
Heating Degree Days20 (Base 65)
Averaged from 36 records on February 13, 2013
WEATHER CONDITIONS BREAKOUT
WIND DIRECTION BREAKOUT
WEATHER BY HOUR - FEBRUARY 13, 2013
[ °C ]   °F
Local TimeTemperatureDewpointHumidityBarometerVisibilityWind DirectionWind SpeedGust SpeedPrecipitationEventsConditions
12:53 AM42.1 °F36.0 °F79 %29.89 in10.0 miNNW (340°)12.7 mph0.04 inRainLight Rain
1:41 AM41.0 °F35.6 °F81 %29.88 in5.0 miNorth (350°)17.3 mph0.04 inRainRain
1:53 AM39.9 °F36.0 °F86 %29.89 in4.0 miNorth (360°)18.4 mph0.07 inRainRain
2:53 AM39.0 °F36.0 °F89 %29.89 in8.0 miNorth (360°)9.2 mph0.08 inRainLight Rain
3:38 AM39.2 °F35.6 °F87 %29.86 in8.0 miNNW (340°)9.2 mph0.02 inRainLight Rain
3:53 AM39.9 °F36.0 °F86 %29.87 in10.0 miNNW (340°)9.2 mph0.02 inRainLight Rain
4:37 AM39.2 °F35.6 °F87 %29.86 in9.0 miNW (320°)5.8 mph0.01 inRainLight Rain
4:51 AM39.2 °F35.6 °F87 %29.86 in9.0 miNorth (350°)4.6 mph0.02 inRainLight Rain
4:53 AM39.9 °F36.0 °F86 %29.87 in9.0 miNorth (360°)5.8 mph0.02 inRainLight Rain
5:53 AM39.9 °F36.0 °F86 %29.88 in9.0 miNorth (360°)3.5 mph0.00 inRainLight Rain
6:53 AM39.9 °F37.0 °F89 %29.91 in7.0 miNNW (340°)4.6 mph0.00 inOvercast
7:36 AM39.2 °F37.4 °F93 %29.92 in10.0 miNNW (330°)3.5 mphOvercast
8:34 AM39.2 °F35.6 °F87 %29.95 in10.0 miNW (320°)5.8 mph0.01 inRainLight Rain
8:53 AM41.0 °F36.0 °F82 %29.96 in10.0 miNW (310°)4.6 mph0.01 inRainLight Rain
9:53 AM41.0 °F36.0 °F82 %29.98 in10.0 miNW (310°)4.6 mph0.00 inOvercast
10:05 AM41.0 °F35.6 °F81 %29.97 in10.0 miNW (310°)4.6 mphOvercast
10:24 AM41.0 °F35.6 °F81 %29.97 in10.0 miNW (320°)3.5 mphOvercast
10:53 AM41.0 °F35.1 °F79 %29.97 in10.0 miCalmOvercast
11:29 AM42.8 °F37.4 °F81 %29.96 in10.0 miWSW (240°)4.6 mphOvercast
11:53 AM44.1 °F37.9 °F79 %29.97 in10.0 miSW (220°)6.9 mphOvercast
12:02 PM44.6 °F37.4 °F76 %29.95 in10.0 miSW (220°)8.1 mphOvercast
12:15 PM44.6 °F37.4 °F76 %29.94 in10.0 miSSW (210°)10.4 mphOvercast
12:53 PM46.0 °F37.9 °F73 %29.94 in10.0 miSW (230°)8.1 mphScattered Clouds
1:03 PM46.4 °F37.4 °F71 %29.92 in10.0 miWSW (250°)8.1 mphMostly Cloudy
1:14 PM46.4 °F37.4 °F71 %29.92 in10.0 miSW (220°)6.9 mphScattered Clouds
1:53 PM48.0 °F39.0 °F71 %29.91 in10.0 miSW (220°)11.5 mphPartly Cloudy
2:53 PM48.9 °F39.0 °F69 %29.91 in10.0 miSSW (200°)12.7 mphClear
3:53 PM50.0 °F39.0 °F66 %29.90 in10.0 miSSW (210°)16.1 mphScattered Clouds
4:53 PM51.1 °F35.1 °F54 %29.89 in10.0 miSW (220°)11.5 mphClear
5:53 PM46.9 °F36.0 °F66 %29.90 in10.0 miSSW (210°)6.9 mphClear
6:53 PM45.0 °F37.0 °F74 %29.91 in10.0 miSSW (210°)8.1 mphClear
7:53 PM44.1 °F36.0 °F73 %29.92 in10.0 miSW (220°)5.8 mphClear
8:53 PM44.1 °F36.0 °F73 %29.94 in10.0 miSW (220°)9.2 mphClear
9:53 PM42.1 °F37.9 °F85 %29.94 in10.0 miSW (220°)8.1 mphClear
10:53 PM42.1 °F37.0 °F82 %29.95 in10.0 miSSW (210°)9.2 mphClear
11:53 PM39.9 °F36.0 °F86 %29.95 in10.0 miSSW (210°)6.9 mphClear
Hourly data recorded from KPOF, located miles away from Gideon, Missouri







STORIES FROM OUR PARTNERS